FENGYUN 1C DEB

Satellite information

Favourite Embed

Satellite Type and Status

DEBRISIN ORBIT

Key statistics

Satellite FENGYUN 1C DEB at a glance.

Uptime

9664

Days in orbit

Revolutions

≈ 14.6

Per day

Orbit

SSO

Sun Synchronous Orbit

Inclination

99.1

Latest

Satellite identification and parameters

Extended collection of information and parameters for FENGYUN 1C DEB.

Object identification

Identified? True

Debris? True

Object name: FENGYUN 1C DEB

International designator: 1999-025AUY

Object number (NORAD): 30814

Object ID (CCSDS): 30814

Country: PEOPLES REPUBLIC OF CHINA (PRC)

Current information (Y/N): Y

RCS size: SMALL

Orbital parameters

Period: 98.748 minutes

Inclination: 99.0798 deg

SMA: 7076.932 km

Apoapsis: 724.415 km

Periapsis: 673.179 km

RAAN: 268.356 deg

Eccentricy: 0.00361994

Argument of periapsis: 27.2674 deg

Mean anomaly: 29.1431 deg

Mean motion: 14.58261007 rev/day

Mean motion (dot): 0.00019386 rev/day2

B* drag term: 0.0041587837 1/REarth

Two-line elements (TLE)

Creation date: Oct. 24, 2025, 2:48 a.m.

Reference frame: TEME

Reference center: EARTH

Epoch: Oct. 23, 2025, 3:19 p.m. UTC

TLE line 0: 0 FENGYUN 1C DEB

TLE line 1: 1 30814U 99025AUY 25296.63819781 .00019386 00000-0 41588-2 0 9993

TLE line 2: 2 30814 99.0798 268.3560 0036199 27.2674 29.1431 14.58261007970118

Live tracking on map

Real-time ground track for satellite FENGYUN 1C DEB.

In-orbit conjunctions

A list of the most updated potential collisions computed for object FENGYUN 1C DEB.

Target Orbit TCA Probability of collision Miss distance Type
NOAA 16 DEB SSO 2024-11-11 06:58:35 0.0001537932 632.0 (m) DEBRIS
COSMOS 2251 DEB LEO 2024-11-10 21:15:53 0.0004039668 222.0 (m) DEBRIS
COSMOS 1048 LEO 2024-09-20 19:45:41 0.0001114334 825.0 (m) PAYLOAD

Associated space launch

Chinese polar orbiting meteorological satellite

FENGYUN 1C DEB was lifted into orbit during the mission ‘Long March 4B | Feng Yun 1C’, on board a Long March 4B space rocket.

The launch took place on May 10, 1999, 1:33 a.m. from Launch Complex 7.

For more information about the launch, click the button.

Launch to space Long March 4B | Feng Yun 1C
Long March 4B | Feng Yun 1C

Agency: N/A

Status: Launch Successful

Launch date: May 10, 1999, 1:33 a.m. UTC

Rocket: Long March 4B

Launch pad: Launch Complex 7

Location: Taiyuan Satellite Launch Center, People's Republic of China

...

Latest news about this satellite

There are no fresh news available about this satellite. Check back as we update our databases every day.


Newsletter sign-up

Weekly statistics, charts and insights to help you stay on top of the space industry.